Time,TemperatureF,DewpointF,PressureIn,WindDirection,WindDirectionDegrees,WindSpeedMPH,WindSpeedGustMPH,Humidity,HourlyPrecipIn,Conditions,Clouds,dailyrainin,SoftwareType,DateUTC
2013-02-17 00:02:00,9.0,6.0,30.20,NW,312,1.0,-999.0,87,-99.99,,,-99.99,,2013-02-17 05:02:00,
2013-02-17 00:12:00,9.0,6.0,30.20,NW,320,0.0,-999.0,88,-99.99,,,-99.99,,2013-02-17 05:12:00,
2013-02-17 00:22:00,9.0,6.0,30.20,NW,320,0.0,-999.0,88,-99.99,,,-99.99,,2013-02-17 05:22:00,
2013-02-17 00:33:00,9.0,6.0,30.20,NW,320,0.0,-999.0,88,-99.99,,,-99.99,,2013-02-17 05:33:00,
2013-02-17 00:42:00,9.0,6.0,30.20,NW,320,0.0,-999.0,88,-99.99,,,-99.99,,2013-02-17 05:42:00,
2013-02-17 00:52:00,9.0,6.0,30.19,NW,320,0.0,-999.0,87,-99.99,,,-99.99,,2013-02-17 05:52:00,
2013-02-17 01:02:00,8.0,5.0,30.20,NW,320,0.0,-999.0,87,-99.99,,,-99.99,,2013-02-17 06:02:00,
2013-02-17 01:11:00,8.0,5.0,30.20,NW,320,0.0,-999.0,87,-99.99,,,-99.99,,2013-02-17 06:11:00,
2013-02-17 01:21:00,7.0,4.0,30.20,NW,320,0.0,-999.0,87,-99.99,,,-99.99,,2013-02-17 06:21:00,
2013-02-17 01:31:00,6.0,3.0,30.21,NW,320,0.0,-999.0,87,-99.99,,,-99.99,,2013-02-17 06:31:00,
2013-02-17 01:42:00,6.0,3.0,30.21,NW,320,0.0,-999.0,87,-99.99,,,-99.99,,2013-02-17 06:42:00,
2013-02-17 01:52:00,6.0,3.0,30.21,NW,320,0.0,-999.0,87,-99.99,,,-99.99,,2013-02-17 06:52:00,
2013-02-17 02:01:00,5.0,2.0,30.21,NW,320,0.0,-999.0,87,-99.99,,,-99.99,,2013-02-17 07:01:00,
2013-02-17 02:11:00,5.0,2.0,30.21,NW,320,0.0,-999.0,87,-99.99,,,-99.99,,2013-02-17 07:11:00,
2013-02-17 02:21:00,5.0,2.0,30.21,NW,320,0.0,-999.0,87,-99.99,,,-99.99,,2013-02-17 07:21:00,
2013-02-17 02:32:00,4.0,1.0,30.21,NW,320,0.0,-999.0,87,-99.99,,,-99.99,,2013-02-17 07:32:00,
2013-02-17 02:42:00,4.0,1.0,30.21,NW,320,0.0,-999.0,87,-99.99,,,-99.99,,2013-02-17 07:42:00,
2013-02-17 02:52:00,3.0,0.0,30.21,NW,320,0.0,-999.0,86,-99.99,,,-99.99,,2013-02-17 07:52:00,
2013-02-17 03:01:00,3.0,0.0,30.22,NW,320,0.0,-999.0,86,-99.99,,,-99.99,,2013-02-17 08:01:00,
2013-02-17 03:11:00,3.0,0.0,30.22,NW,320,0.0,-999.0,86,-99.99,,,-99.99,,2013-02-17 08:11:00,
2013-02-17 03:21:00,2.0,-1.0,30.22,NW,320,0.0,-999.0,86,-99.99,,,-99.99,,2013-02-17 08:21:00,
2013-02-17 03:32:00,2.0,-1.0,30.22,NW,320,0.0,-999.0,86,-99.99,,,-99.99,,2013-02-17 08:32:00,
2013-02-17 03:42:00,2.0,-1.0,30.22,NW,320,0.0,-999.0,86,-99.99,,,-99.99,,2013-02-17 08:42:00,
2013-02-17 03:52:00,1.0,-2.0,30.22,NW,320,0.0,-999.0,86,-99.99,,,-99.99,,2013-02-17 08:52:00,
2013-02-17 04:02:00,1.0,-2.0,30.23,NW,320,0.0,-999.0,86,-99.99,,,-99.99,,2013-02-17 09:02:00,
2013-02-17 04:11:00,1.0,-2.0,30.23,NW,320,0.0,-999.0,86,-99.99,,,-99.99,,2013-02-17 09:11:00,
2013-02-17 04:21:00,1.0,-2.0,30.23,NW,320,0.0,-999.0,86,-99.99,,,-99.99,,2013-02-17 09:21:00,
2013-02-17 04:32:00,0.0,-3.0,30.23,NW,320,0.0,-999.0,86,-99.99,,,-99.99,,2013-02-17 09:32:00,
2013-02-17 04:42:00,0.0,-3.0,30.23,NW,320,0.0,-999.0,86,-99.99,,,-99.99,,2013-02-17 09:42:00,
2013-02-17 04:51:00,0.0,-3.0,30.23,NW,320,0.0,-999.0,86,-99.99,,,-99.99,,2013-02-17 09:51:00,
2013-02-17 05:01:00,0.0,-3.0,30.23,NW,320,0.0,-999.0,86,-99.99,,,-99.99,,2013-02-17 10:01:00,
2013-02-17 05:11:00,0.0,-3.0,30.23,NW,320,0.0,-999.0,86,-99.99,,,-99.99,,2013-02-17 10:11:00,
2013-02-17 05:21:00,0.0,-3.0,30.23,NW,320,0.0,-999.0,86,-99.99,,,-99.99,,2013-02-17 10:21:00,
2013-02-17 05:32:00,-1.0,-4.0,30.24,NW,320,0.0,-999.0,86,-99.99,,,-99.99,,2013-02-17 10:32:00,
2013-02-17 05:42:00,-1.0,-4.0,30.24,NW,320,0.0,-999.0,86,-99.99,,,-99.99,,2013-02-17 10:42:00,
2013-02-17 05:52:00,-1.0,-4.0,30.24,NW,320,0.0,-999.0,86,-99.99,,,-99.99,,2013-02-17 10:52:00,
2013-02-17 06:01:00,-1.0,-4.0,30.24,NW,320,0.0,-999.0,86,-99.99,,,-99.99,,2013-02-17 11:01:00,
2013-02-17 06:11:00,-1.0,-4.0,30.24,NW,320,0.0,-999.0,86,-99.99,,,-99.99,,2013-02-17 11:11:00,
2013-02-17 06:21:00,-1.0,-4.0,30.25,NW,320,0.0,-999.0,86,-99.99,,,-99.99,,2013-02-17 11:21:00,
2013-02-17 06:32:00,-1.0,-4.0,30.25,NW,320,0.0,-999.0,86,-99.99,,,-99.99,,2013-02-17 11:32:00,
2013-02-17 06:42:00,-1.0,-4.0,30.25,NW,320,0.0,-999.0,86,-99.99,,,-99.99,,2013-02-17 11:42:00,
2013-02-17 06:52:00,-1.0,-4.0,30.26,NW,320,0.0,-999.0,86,-99.99,,,-99.99,,2013-02-17 11:52:00,
2013-02-17 07:03:00,-1.0,-4.0,30.26,NW,320,0.0,-999.0,86,-99.99,,,-99.99,,2013-02-17 12:03:00,
2013-02-17 07:11:00,-1.0,-4.0,30.26,NW,320,0.0,-999.0,86,-99.99,,,-99.99,,2013-02-17 12:11:00,
2013-02-17 07:22:00,-1.0,-4.0,30.27,NW,320,0.0,-999.0,87,-99.99,,,-99.99,,2013-02-17 12:22:00,
2013-02-17 07:32:00,0.0,-3.0,30.27,NW,320,0.0,-999.0,87,-99.99,,,-99.99,,2013-02-17 12:32:00,
2013-02-17 07:42:00,0.0,-3.0,30.27,NW,320,0.0,-999.0,87,-99.99,,,-99.99,,2013-02-17 12:42:00,
2013-02-17 07:52:00,0.0,-3.0,30.27,NW,320,0.0,-999.0,87,-99.99,,,-99.99,,2013-02-17 12:52:00,
2013-02-17 08:02:00,0.0,-3.0,30.27,NW,320,0.0,-999.0,87,-99.99,,,-99.99,,2013-02-17 13:02:00,
2013-02-17 08:12:00,0.0,-3.0,30.27,NW,320,0.0,-999.0,87,-99.99,,,-99.99,,2013-02-17 13:12:00,
2013-02-17 08:22:00,0.0,-3.0,30.28,NW,320,0.0,-999.0,88,-99.99,,,-99.99,,2013-02-17 13:22:00,
2013-02-17 08:32:00,1.0,-2.0,30.29,NW,320,0.0,-999.0,88,-99.99,,,-99.99,,2013-02-17 13:32:00,
2013-02-17 08:42:00,1.0,-2.0,30.29,NW,320,0.0,-999.0,88,-99.99,,,-99.99,,2013-02-17 13:42:00,
2013-02-17 08:51:00,2.0,-1.0,30.29,NW,320,0.0,-999.0,88,-99.99,,,-99.99,,2013-02-17 13:51:00,
2013-02-17 09:01:00,4.0,2.0,30.29,NW,320,0.0,-999.0,89,-99.99,,,-99.99,,2013-02-17 14:01:00,
2013-02-17 09:11:00,4.0,2.0,30.29,NW,320,0.0,-999.0,89,-99.99,,,-99.99,,2013-02-17 14:11:00,
2013-02-17 09:22:00,7.0,5.0,30.29,ENE,78,0.0,-999.0,90,-99.99,,,-99.99,,2013-02-17 14:22:00,
2013-02-17 09:32:00,10.0,8.0,30.29,ENE,78,0.0,-999.0,90,-99.99,,,-99.99,,2013-02-17 14:32:00,
2013-02-17 09:42:00,10.0,8.0,30.29,ENE,78,0.0,-999.0,90,-99.99,,,-99.99,,2013-02-17 14:42:00,
2013-02-17 09:53:00,11.0,8.0,30.29,East,79,0.0,-999.0,89,-99.99,,,-99.99,,2013-02-17 14:53:00,
2013-02-17 10:02:00,11.0,8.0,30.30,SSW,211,1.0,-999.0,88,-99.99,,,-99.99,,2013-02-17 15:02:00,
2013-02-17 10:11:00,11.0,8.0,30.30,SSW,211,1.0,-999.0,88,-99.99,,,-99.99,,2013-02-17 15:11:00,
2013-02-17 10:21:00,11.0,8.0,30.30,SSW,211,1.0,-999.0,86,-99.99,,,-99.99,,2013-02-17 15:21:00,
2013-02-17 10:32:00,13.0,9.0,30.30,SSW,202,1.0,-999.0,85,-99.99,,,-99.99,,2013-02-17 15:32:00,
2013-02-17 10:42:00,13.0,9.0,30.30,SSW,202,1.0,-999.0,85,-99.99,,,-99.99,,2013-02-17 15:42:00,
2013-02-17 10:52:00,14.0,10.0,30.31,South,175,0.0,-999.0,82,-99.99,,,-99.99,,2013-02-17 15:52:00,
2013-02-17 11:01:00,15.0,9.0,30.31,SSE,153,1.0,-999.0,77,-99.99,,,-99.99,,2013-02-17 16:01:00,
2013-02-17 11:12:00,15.0,9.0,30.31,SSE,153,1.0,-999.0,77,-99.99,,,-99.99,,2013-02-17 16:12:00,
2013-02-17 11:21:00,16.0,9.0,30.31,SSE,155,1.0,-999.0,75,-99.99,,,-99.99,,2013-02-17 16:21:00,
2013-02-17 11:32:00,16.0,9.0,30.31,SSE,155,1.0,-999.0,73,-99.99,,,-99.99,,2013-02-17 16:32:00,
2013-02-17 11:42:00,16.0,9.0,30.31,SSE,155,1.0,-999.0,73,-99.99,,,-99.99,,2013-02-17 16:42:00,
2013-02-17 11:52:00,17.0,9.0,30.31,South,182,2.0,-999.0,71,-99.99,,,-99.99,,2013-02-17 16:52:00,
2013-02-17 12:02:00,18.0,10.0,30.31,South,175,3.0,-999.0,69,-99.99,,,-99.99,,2013-02-17 17:02:00,
2013-02-17 12:11:00,18.0,10.0,30.31,South,175,3.0,-999.0,69,-99.99,,,-99.99,,2013-02-17 17:11:00,
2013-02-17 12:21:00,18.0,9.0,30.32,SSE,158,2.0,-999.0,67,-99.99,,,-99.99,,2013-02-17 17:21:00,
2013-02-17 12:32:00,18.0,9.0,30.32,SSE,158,2.0,-999.0,67,-99.99,,,-99.99,,2013-02-17 17:32:00,
2013-02-17 12:42:00,18.0,9.0,30.32,SSE,158,2.0,-999.0,67,-99.99,,,-99.99,,2013-02-17 17:42:00,
2013-02-17 12:52:00,18.0,9.0,30.32,South,175,2.0,-999.0,66,-99.99,,,-99.99,,2013-02-17 17:52:00,
2013-02-17 13:02:00,19.0,9.0,30.31,South,175,2.0,-999.0,64,-99.99,,,-99.99,,2013-02-17 18:02:00,
2013-02-17 13:11:00,19.0,9.0,30.31,South,175,2.0,-999.0,64,-99.99,,,-99.99,,2013-02-17 18:11:00,
2013-02-17 13:22:00,19.0,9.0,30.30,South,173,4.0,-999.0,64,-99.99,,,-99.99,,2013-02-17 18:22:00,
2013-02-17 13:33:00,19.0,8.0,30.30,WSW,246,3.0,-999.0,62,-99.99,,,-99.99,,2013-02-17 18:33:00,
2013-02-17 13:42:00,19.0,8.0,30.30,WSW,246,3.0,-999.0,62,-99.99,,,-99.99,,2013-02-17 18:42:00,
2013-02-17 13:52:00,20.0,8.0,30.29,SE,132,4.0,-999.0,60,-99.99,,,-99.99,,2013-02-17 18:52:00,
2013-02-17 14:02:00,20.0,8.0,30.29,SSE,161,4.0,-999.0,59,-99.99,,,-99.99,,2013-02-17 19:02:00,
2013-02-17 14:11:00,20.0,8.0,30.29,SSE,161,4.0,-999.0,59,-99.99,,,-99.99,,2013-02-17 19:11:00,
2013-02-17 14:22:00,21.0,9.0,30.28,WSW,240,2.0,-999.0,58,-99.99,,,-99.99,,2013-02-17 19:22:00,
2013-02-17 14:32:00,21.0,9.0,30.28,South,177,1.0,-999.0,58,-99.99,,,-99.99,,2013-02-17 19:32:00,
2013-02-17 14:42:00,21.0,9.0,30.28,South,177,1.0,-999.0,58,-99.99,,,-99.99,,2013-02-17 19:42:00,
2013-02-17 14:52:00,22.0,10.0,30.27,SSE,166,2.0,-999.0,59,-99.99,,,-99.99,,2013-02-17 19:52:00,
2013-02-17 15:02:00,23.0,10.0,30.27,SE,137,2.0,-999.0,58,-99.99,,,-99.99,,2013-02-17 20:02:00,
2013-02-17 15:11:00,23.0,10.0,30.27,SE,137,2.0,-999.0,58,-99.99,,,-99.99,,2013-02-17 20:11:00,
2013-02-17 15:22:00,23.0,11.0,30.27,SW,225,1.0,-999.0,60,-99.99,,,-99.99,,2013-02-17 20:22:00,
2013-02-17 15:32:00,23.0,11.0,30.27,South,177,2.0,-999.0,60,-99.99,,,-99.99,,2013-02-17 20:32:00,
2013-02-17 15:42:00,23.0,11.0,30.27,South,177,2.0,-999.0,60,-99.99,,,-99.99,,2013-02-17 20:42:00,
2013-02-17 15:52:00,23.0,12.0,30.27,South,184,3.0,-999.0,61,-99.99,,,-99.99,,2013-02-17 20:52:00,
2013-02-17 16:02:00,23.0,12.0,30.27,South,172,2.0,-999.0,61,-99.99,,,-99.99,,2013-02-17 21:02:00,
2013-02-17 16:11:00,23.0,12.0,30.27,South,172,2.0,-999.0,61,-99.99,,,-99.99,,2013-02-17 21:11:00,
2013-02-17 16:21:00,23.0,12.0,30.26,SW,222,1.0,-999.0,62,-99.99,,,-99.99,,2013-02-17 21:21:00,
2013-02-17 16:32:00,24.0,12.0,30.26,SW,225,1.0,-999.0,60,-99.99,,,-99.99,,2013-02-17 21:32:00,
2013-02-17 16:42:00,24.0,12.0,30.26,SW,225,1.0,-999.0,60,-99.99,,,-99.99,,2013-02-17 21:42:00,
2013-02-17 16:52:00,23.0,11.0,30.26,South,169,1.0,-999.0,60,-99.99,,,-99.99,,2013-02-17 21:52:00,
2013-02-17 17:01:00,23.0,11.0,30.26,WSW,240,2.0,-999.0,60,-99.99,,,-99.99,,2013-02-17 22:01:00,
2013-02-17 17:12:00,23.0,11.0,30.26,WSW,240,2.0,-999.0,60,-99.99,,,-99.99,,2013-02-17 22:12:00,
2013-02-17 17:22:00,23.0,12.0,30.26,South,182,1.0,-999.0,62,-99.99,,,-99.99,,2013-02-17 22:22:00,
2013-02-17 17:32:00,23.0,12.0,30.26,SE,132,2.0,-999.0,61,-99.99,,,-99.99,,2013-02-17 22:32:00,
2013-02-17 17:42:00,23.0,12.0,30.26,SE,132,2.0,-999.0,61,-99.99,,,-99.99,,2013-02-17 22:42:00,
2013-02-17 17:52:00,23.0,12.0,30.25,SSW,202,1.0,-999.0,62,-99.99,,,-99.99,,2013-02-17 22:52:00,
2013-02-17 18:02:00,23.0,12.0,30.26,SSE,156,1.0,-999.0,62,-99.99,,,-99.99,,2013-02-17 23:02:00,
2013-02-17 18:11:00,23.0,12.0,30.26,SSE,156,1.0,-999.0,62,-99.99,,,-99.99,,2013-02-17 23:11:00,
2013-02-17 18:21:00,23.0,12.0,30.26,SSE,156,1.0,-999.0,63,-99.99,,,-99.99,,2013-02-17 23:21:00,
2013-02-17 18:32:00,22.0,12.0,30.24,SE,132,2.0,-999.0,64,-99.99,,,-99.99,,2013-02-17 23:32:00,
2013-02-17 18:42:00,22.0,12.0,30.24,SE,132,2.0,-999.0,64,-99.99,,,-99.99,,2013-02-17 23:42:00,
2013-02-17 18:52:00,22.0,12.0,30.24,ESE,120,1.0,-999.0,64,-99.99,,,-99.99,,2013-02-17 23:52:00,
2013-02-17 19:02:00,20.0,11.0,30.24,ESE,120,1.0,-999.0,67,-99.99,,,-99.99,,2013-02-18 00:02:00,
2013-02-17 19:11:00,20.0,11.0,30.24,ESE,120,1.0,-999.0,67,-99.99,,,-99.99,,2013-02-18 00:11:00,
2013-02-17 19:22:00,20.0,12.0,30.24,SE,128,0.0,-999.0,70,-99.99,,,-99.99,,2013-02-18 00:22:00,
2013-02-17 19:32:00,20.0,11.0,30.24,SE,128,0.0,-999.0,69,-99.99,,,-99.99,,2013-02-18 00:32:00,
2013-02-17 19:41:00,20.0,11.0,30.24,SE,128,0.0,-999.0,69,-99.99,,,-99.99,,2013-02-18 00:41:00,
2013-02-17 19:52:00,19.0,11.0,30.23,SE,128,0.0,-999.0,70,-99.99,,,-99.99,,2013-02-18 00:52:00,
2013-02-17 20:01:00,18.0,11.0,30.23,SE,128,0.0,-999.0,72,-99.99,,,-99.99,,2013-02-18 01:01:00,
2013-02-17 20:12:00,18.0,11.0,30.23,SE,128,0.0,-999.0,72,-99.99,,,-99.99,,2013-02-18 01:12:00,
2013-02-17 20:21:00,17.0,10.0,30.23,SE,128,0.0,-999.0,75,-99.99,,,-99.99,,2013-02-18 01:21:00,
2013-02-17 20:32:00,16.0,10.0,30.23,SE,128,0.0,-999.0,78,-99.99,,,-99.99,,2013-02-18 01:32:00,
2013-02-17 20:42:00,16.0,10.0,30.23,SE,128,0.0,-999.0,78,-99.99,,,-99.99,,2013-02-18 01:42:00,
2013-02-17 20:52:00,16.0,11.0,30.23,SE,128,0.0,-999.0,80,-99.99,,,-99.99,,2013-02-18 01:52:00,
2013-02-17 21:02:00,16.0,10.0,30.23,SE,128,0.0,-999.0,78,-99.99,,,-99.99,,2013-02-18 02:02:00,
2013-02-17 21:11:00,16.0,10.0,30.23,SE,128,0.0,-999.0,78,-99.99,,,-99.99,,2013-02-18 02:11:00,
2013-02-17 21:22:00,17.0,12.0,30.23,SE,128,0.0,-999.0,79,-99.99,,,-99.99,,2013-02-18 02:22:00,
2013-02-17 21:32:00,17.0,11.0,30.23,SE,128,0.0,-999.0,77,-99.99,,,-99.99,,2013-02-18 02:32:00,
2013-02-17 21:42:00,17.0,11.0,30.23,SE,128,0.0,-999.0,77,-99.99,,,-99.99,,2013-02-18 02:42:00,
2013-02-17 21:52:00,16.0,10.0,30.23,SE,128,0.0,-999.0,77,-99.99,,,-99.99,,2013-02-18 02:52:00,
2013-02-17 22:01:00,16.0,10.0,30.24,SE,128,0.0,-999.0,77,-99.99,,,-99.99,,2013-02-18 03:01:00,
2013-02-17 22:11:00,16.0,10.0,30.24,SE,128,0.0,-999.0,77,-99.99,,,-99.99,,2013-02-18 03:11:00,
2013-02-17 22:21:00,16.0,10.0,30.23,SE,128,1.0,-999.0,78,-99.99,,,-99.99,,2013-02-18 03:21:00,
2013-02-17 22:32:00,16.0,10.0,30.23,SE,128,1.0,-999.0,78,-99.99,,,-99.99,,2013-02-18 03:32:00,
2013-02-17 22:42:00,16.0,10.0,30.23,SE,128,1.0,-999.0,78,-99.99,,,-99.99,,2013-02-18 03:42:00,
2013-02-17 22:51:00,16.0,10.0,30.22,SE,128,0.0,-999.0,77,-99.99,,,-99.99,,2013-02-18 03:51:00,
2013-02-17 23:01:00,17.0,11.0,30.22,SE,129,1.0,-999.0,77,-99.99,,,-99.99,,2013-02-18 04:01:00,
2013-02-17 23:11:00,17.0,11.0,30.22,SE,129,1.0,-999.0,77,-99.99,,,-99.99,,2013-02-18 04:11:00,
2013-02-17 23:21:00,17.0,11.0,30.22,SE,132,1.0,-999.0,76,-99.99,,,-99.99,,2013-02-18 04:21:00,
2013-02-17 23:32:00,18.0,11.0,30.22,SE,130,1.0,-999.0,74,-99.99,,,-99.99,,2013-02-18 04:32:00,
2013-02-17 23:42:00,18.0,11.0,30.22,SE,130,1.0,-999.0,74,-99.99,,,-99.99,,2013-02-18 04:42:00,
2013-02-17 23:51:00,18.0,11.0,30.21,SE,136,3.0,-999.0,73,-99.99,,,-99.99,,2013-02-18 04:51:00,